Terminal Aerodrome Forecast
Issued by NWS

Home | Current Version | Previous Version | Text Only | Print | Product List | Glossary On
Versions: 1 2 3 4 5 6 7 8 9 10 11 12 13 14 15 16 17 18 19 20 21 22 23 24
000
FTUS43 KEAX 262232 AAA
TAFMKC
TAF AMD
KMKC 262232Z 2623/2718 14009KT P6SM SKC
     FM270000 14010KT P6SM VCTS SCT040CB
     FM270100 16011KT 4SM -TSRA BKN025CB
      TEMPO 2702/2704 VRB20G40KT 1SM +TSRA
     FM271200 12010KT P6SM VCTS BKN035CB=

USA.gov is the U.S. government's official web portal to all federal, state and local government web resources and services.